#timestamp,LO_Frequency,Hit,StdDev 
1657789215.4,286046998.7,N
1657789235.3,286047001.6,N
1657789255.1,286047004.2,N
1657789275.9,286047002.6,N
1657789295.7,286047001.4,N
1657789315.5,286047003.2,N
1657789335.4,286047001.5,N
1657789355.2,286047000.8,N
1657789375.0,286046999.1,N
1657789375.9,286046999.1,N
1657789395.8,286047000.7,N
1657789415.6,286046999.4,N
1657789435.5,286046993.7,N
1657789455.3,286046989.6,N
1657789475.1,286046983.9,Y
1657789495.9,286046986.1,P
1657789515.7,286046990.0,N
1657789535.5,286046986.8,N
1657789555.4,286046984.8,Y
1657789575.2,286046993.7,P
1657789595.1,286046996.3,N
1657789596.0,286046996.3,N
1657789615.8,286046994.4,N
1657789635.7,286046990.5,Y
1657789655.5,286046994.5,P
1657789675.3,286046991.8,P
1657789695.2,286046994.6,P
1657789715.0,286046996.0,Y
1657789715.9,286046996.0,P
1657789735.8,286047000.3,N
1657789755.6,286047001.1,N
1657789775.4,286046998.7,N
1657789795.3,286046997.7,N
1657789815.1,286046997.2,N
1657789816.0,286046997.2,N
1657789835.9,286046995.3,N
1657789855.7,286046993.9,N
1657789875.5,286046993.1,N
1657789895.4,286046989.5,Y
1657789915.2,286046989.1,P
1657789935.0,286046986.5,P
1657789935.9,286046986.5,P
1657789955.8,286046983.4,Y
1657789975.6,286046985.7,P
1657789995.5,286046980.8,P
1657790015.3,286046978.4,P
1657790035.1,286046974.8,Y
1657790055.9,286046990.7,P
1657790075.7,286046996.2,N
1657790095.6,286046996.2,N
1657790115.4,286046990.5,N
1657790135.2,286046989.3,N
1657790155.1,286046988.9,N
1657790156.0,286046988.9,N
1657790175.8,286046991.4,N
1657790195.7,286046988.5,Y
1657790215.5,286046998.2,P
1657790235.3,286047002.3,N
1657790255.2,286046998.7,N
1657790275.0,286046997.2,N
1657790275.9,286046997.2,N
1657790295.7,286046995.7,N
1657790315.6,286046993.3,N
1657790335.4,286046995.3,N
1657790355.3,286046999.4,N
1657790375.1,286047002.9,N
1657790376.0,286047002.9,N
1657790395.8,286047008.6,N
1657790415.7,286047005.3,N
1657790435.5,286047005.7,N
1657790455.3,286047005.7,N
1657790475.2,286047001.3,N
1657790495.0,286047002.9,N
1657790495.9,286047002.9,N
1657790515.8,286047004.6,N
1657790535.6,286047007.3,N
1657790555.4,286047007.0,N
1657790575.3,286047005.1,N
1657790595.1,286047003.0,N
1657790615.8,286047004.1,N
1657790635.7,286046999.8,N
1657790655.5,286046998.7,N
1657790675.4,286046995.0,N
1657790695.2,286046993.3,N
1657790715.0,286046992.2,N
1657790715.9,286046992.2,N
1657790735.8,286046991.9,N
1657790755.6,286046990.7,N
1657790775.4,286046986.9,N
1657790795.3,286046987.9,N
1657790815.1,286046989.6,N
1657790835.9,286046989.0,N
1657790855.7,286046985.3,N
1657790875.5,286046985.2,N
1657790895.4,286046982.0,N
1657790915.2,286046975.9,Y
1657790935.0,286046977.1,P
1657790935.9,286046977.1,N
1657790955.8,286046974.0,N
1657790975.6,286046976.3,N
1657790995.5,286046977.5,N
1657791015.3,286046978.5,N
1657791035.1,286046979.9,N
1657791055.9,286046981.2,N
1657791075.7,286046982.4,N
1657791095.5,286046984.6,N
1657791115.4,286046986.5,N
1657791135.2,286046985.5,N
1657791155.1,286046988.4,N
1657791156.0,286046988.4,N
1657791175.8,286046985.3,N
1657791195.6,286046986.1,N
1657791215.5,286046981.0,Y
1657791235.3,286046994.0,P
1657791255.1,286046992.9,N
1657791275.9,286046986.0,N
1657791295.7,286046986.3,N
1657791315.6,286046989.4,N
1657791335.4,286046989.3,N
1657791355.2,286046986.3,Y
1657791375.1,286046993.8,P
1657791376.0,286046993.8,N
1657791395.8,286046995.2,N
1657791445.7,286046987.2,E
1657791455.6,286046988.6,N
1657791475.4,286046990.6,P
1657791495.3,286046988.2,P
1657791515.1,286046985.0,Y
1657791565.9,286047000.1,E
1657791575.8,286047003.3,N
1657791595.7,286047007.1,P
1657791615.5,286047005.7,N
1657791635.3,286047003.5,N
1657791655.2,286047004.4,N
1657791675.9,286047000.2,N
1657791695.7,286046997.0,N
1657791715.6,286046995.1,N
1657791735.4,286046990.6,N
1657791755.2,286046991.5,N
1657791775.1,286046993.5,N
1657791776.0,286046993.5,N
1657791795.8,286046995.3,N
1657791815.7,286047000.4,N
1657791835.5,286046997.5,N
1657791855.3,286046996.3,N
1657791875.2,286046995.5,N
1657791895.0,286046996.5,N
1657791895.9,286046996.5,N
1657791915.8,286046998.2,N
1657791935.6,286047000.5,N
1657791955.4,286046994.9,N
1657791975.3,286046993.5,N
1657791995.1,286046996.1,N
1657792015.8,286046995.9,N
1657792035.7,286046992.5,N
1657792055.5,286046989.4,N
1657792075.4,286046984.7,Y
1657792095.2,286046984.9,P
1657792115.0,286046984.7,N
1657792115.9,286046984.7,N
1657792135.8,286046982.5,Y
1657792155.6,286046996.4,P
1657792175.5,286046994.8,N
1657792195.3,286046989.0,N
1657792215.1,286046987.0,Y
1657792235.9,286046997.9,P
1657792255.7,286046997.5,N
1657792275.5,286046995.6,N
1657792295.4,286046995.3,N
1657792315.2,286047001.1,N
1657792335.1,286047001.9,N
1657792336.0,286047001.9,N
1657792355.8,286047001.8,N
1657792375.6,286047003.1,N
1657792395.5,286047002.8,N
1657792415.3,286046999.1,N
1657792435.2,286046998.2,N
1657792455.9,286047001.6,N
1657792475.7,286047001.8,N
1657792495.6,286047003.9,N
1657792515.4,286047002.6,N
1657792535.2,286047002.8,N
1657792555.1,286047003.2,N
1657792556.0,286047003.2,N
1657792575.8,286047003.6,N
1657792595.7,286047001.1,N
1657792615.5,286046997.1,N
1657792635.3,286046998.7,N
1657792655.2,286047000.2,N
1657792675.0,286047003.9,N
1657792675.9,286047003.9,N
1657792695.7,286047000.2,N
1657792715.6,286047000.8,N
1657792735.4,286046999.8,N
1657792755.3,286047002.7,N
1657792775.1,286046994.4,N
1657792776.0,286046994.4,N
1657792795.8,286046989.6,Y
